This is the latest recevied weather packets stored in our database for station/object I2HLY-4. If no packets are shown the sender has not sent any weather packets the latest 10 day(s).
| Time | Temp. | Humidity | Pressure | Rain* | Wind** | Luminosity | Snow |
|---|---|---|---|---|---|---|---|
| 1788156148 | 61° F | 84% | 764.8 mmHg | 0 in | - | - | - |
| 1788155249 | 62° F | 82% | 764.7 mmHg | 0 in | - | - | - |
| 1788154347 | 62° F | 80% | 764.5 mmHg | 0 in | - | - | - |
| 1788153432 | 62° F | 80% | 764.5 mmHg | 0 in | - | - | - |
| 1788152537 | 62° F | 79% | 764.5 mmHg | 0 in | - | - | - |
| 1788151639 | 61° F | 81% | 764.5 mmHg | 0 in | - | - | - |
| 1788150735 | 62° F | 81% | 764.4 mmHg | 0 in | - | - | - |
| 1788149847 | 62° F | 79% | 764.5 mmHg | 0 in | - | - | - |
| 1788148937 | 62° F | 82% | 764.5 mmHg | 0 in | - | - | - |
| 1788148044 | 62° F | 80% | 764.7 mmHg | 0 in | - | - | - |
| 1788147151 | 62° F | 79% | 764.6 mmHg | 0 in | - | - | - |
| 1788146236 | 62° F | 79% | 764.7 mmHg | 0 in | - | - | - |
| 1788145339 | 62° F | 79% | 764.7 mmHg | 0 in | - | - | - |
| 1788144446 | 62° F | 80% | 764.8 mmHg | 0 in | - | - | - |
| 1788143539 | 62° F | 80% | 764.8 mmHg | 0 in | - | - | - |
| 1788142648 | 62° F | 79% | 764.9 mmHg | 0 in | - | - | - |
| 1788141738 | 62° F | 77% | 765 mmHg | 0 in | - | - | - |
| 1788140847 | 62° F | 79% | 765 mmHg | 0 in | - | - | - |
| 1788139945 | 62° F | 79% | 765 mmHg | 0 in | - | - | - |
| 1788139036 | 62° F | 78% | 765.1 mmHg | 0 in | - | - | - |
| 1788138146 | 63° F | 78% | 765 mmHg | 0 in | - | - | - |
| 1788137245 | 62° F | 78% | 765 mmHg | 0 in | - | - | - |
| 1788136334 | 62° F | 79% | 765.1 mmHg | 0 in | - | - | - |
| 1788135440 | 62° F | 79% | 765.1 mmHg | 0 in | - | - | - |
| 1788133633 | 62° F | 77% | 765.3 mmHg | 0 in | - | - | - |
* Rain latest hour (hover to see other rain measurements)
** Current wind speed in m/s (hover to see current wind gust speed)